EHI
0 0 0 0 0 0 0 0 0 0 0 0 0 0 0 0 0 0 0 0 0 0 0 0 0 0 0 0 0 0 0 0 0 0 0 0 0 0 0 0 0 0 0
0 0 0 0 0 0 0 0 0 0 0 0 0 0 0 0 0 0 0 0 0 0 0 0 0 0 0 0 0 0 0 0 0 0 0 0 0 0 0 0 0 0 0
0 0 0 0 0 0 0 0 0 0 0 0 0 0 0 0 0 0 0 0 0 0 0 0 0 0 0 0 0 0 0 0 0 0 0 0 0 0 0 0 0 0 0
0 0 0 0 0 0 0 0 0 0 0 0 0 0 0 0 0 0 0 0 0 0 0 0 0 0 0 0 0 0 0 0 0 0 0 0 0 0 0 0 0 0 0
0 0 0 0 0 0 0 0 0 0 0 0 0 0 0 0 0 0 0 0 0 0 0 0 0 0 0 0 0 0 0 0 0 0 0 0 0 0 0 0 0 0 0
0 0 0 0 0 0 0 0 0 0 0 0 0 0 0 0 0 0 0 0 0 0 0 0 0 0 0 0 0 0 0 0 0 0 0 0 0 0 0 0 0 0 0
0 0 0 0 0 0 0 0 0 0 0 0 0 0 0 0 0 0 0 0 0 0 0 0 0 0 0 0 0 0 0 0 0 0 0 0 0 0 0 0 0 0 0
0 0 0 0 0 0 0 0 0 0 0 0 0 0 0 0 0 0 0 0 0 0 0 0 0 0 0 0 0 0 0 0 0 0 0 0 0 0 0 0 0 0 0
0 0 0 0 0 0 0 0 0 0 0 0 0 0 0 0 0 0 0 0 0 0 0 0 0 0 0 0 0 0 0 0 0 0 0 0 0 0 0 0 0 0 0
0 0 0 0 0 0 0 0 0 0 0 0 0 0 0 0 0 0 0 0 0 0 0 0 0 0 0 0 0 0 0 0 0 0 0 0 0 0 0 0 0 0 0
0 0 0 0 0 0 0 1 1 1 1 0 0 0 0 0 0 0 0 0 0 0 0 0 0 0 0 0 0 0 0 0 0 0 0 0 0 0 0 0 0 0 0
0 0 0 0 1 2 2 2 2 2 2 1 0 0 0 0 0 0 0 0 0 0 0 0 0 0 0 0 0 0 0 0 0 0 0 0 0 0 0 0 0 0 0
0 0 0 1 2 3 3 2 2 2 2 1 0 0 0 0 0 0 0 0 0 0 0 0 0 0 0 0 0 0 0 0 0 0 0 0 0 0 0 0 0 0 0
0 0 0 1 2 2 2 1 1 1 1 0 0 0 0 0 0 0 0 0 0 0 0 0 0 0 0 0 0 0 0 0 0 0 0 0 0 0 0 0 0 0 0
0 0 0 0 1 1 1 0 0 0 0 0 0 0 0 0 0 0 0 0 0 0 0 0 0 0 0 0 0 0 0 0 0 0 0 0 0 0 0 0 0 0 0
0 0 0 0 0 0 0 0 0 0 0 0 0 0 0 0 0 0 0 0 0 0 0 0 0 0 0 0 0 0 0 0 0 0 0 0 0 0 0 0 0 0 0
0 0 0 0 0 0 0 0 0 0 0 0 0 0 0 0 0 0 0 0 0 0 0 0 0 0 0 0 0 0 0 0 0 0 0 0 0 0 0 0 0 0 0
0 0 0 0 0 0 0 0 0 0 0 0 0 0 0 0 0 0 0 0 0 0 0 0 0 0 0 0 0 0 0 0 0 0 0 0 0 0 0 0 0 0 0
0 0 0 0 0 0 0 0 0 0 0 0 0 0 0 0 0 0 0 0 0 0 0 0 0 0 0 0 0 0 0 0 0 0 0 0 0 0 0 0 0 0 0
0 0 0 0 0 0 0 0 0 0 0 0 0 0 0 0 0 0 0 0 0 0 0 0 0 0 0 0 0 0 0 0 0 0 0 0 0 0 0 0 0 0 0
0 0 0 0 0 0 0 0 0 0 0 0 0 0 0 0 0 0 0 0 0 0 0 0 0 0 0 0 0 0 0 0 0 0 0 0 0 0 0 0 0 0 0
0 0 0 0 0 0 0 0 0 0 0 0 0 0 0 0 0 0 0 0 0 0 0 0 0 0 0 0 0 0 0 0 0 0 0 0 0 0 0 0 0 0 0
0 0 0 0 0 0 0 0 0 0 0 0 0 0 0 0 0 0 0 0 0 0 0 0 0 0 0 0 0 0 0 0 0 0 0 0 0 0 0 0 0 0 0
0 0 0 0 0 0 0 0 0 0 0 0 0 0 0 0 0 0 0 0 0 0 0 0 0 0 0 0 0 0 0 0 0 0 0 0 0 0 0 0 0 0 0
0 0 0 0 0 0 0 0 0 0 0 0 0 0 0 0 0 0 0 0 0 0 0 0 0 0 0 0 0 0 0 0 0 0 0 0 0 0 0 0 0 0 0
0 0 0 0 0 0 0 0 0 0 0 0 0 0 0 0 0 0 0 0 0 0 0 0 0 0 0 0 0 0 0 0 0 0 0 0 0 0 0 0 0 0 0
Wind_Speed
7 6 5 5 5 5 5 5 5 5 4 4 3 3 3 3 3 3 1 3 4 6 7 8 7 7 6 6 6 5 4 4 4 5 5 5 5 5 5 4 3 2 2
6 6 6 6 5 5 5 5 5 4 3 3 3 3 4 3 4 4 3 3 5 5 7 8 8 7 6 5 4 4 4 4 4 4 5 5 6 6 6 6 6 5 4
8 7 6 6 6 6 6 5 5 4 3 3 4 4 3 4 4 5 4 4 3 3 4 5 5 5 4 3 2 1 2 3 4 5 5 5 5 6 6 7 7 7 6
9 7 6 6 6 5 5 5 4 4 4 4 3 3 3 3 5 4 4 3 3 2 2 1 3 3 3 2 1 1 1 0 1 3 4 5 5 6 6 6 7 6 7
10 8 6 6 7 5 5 5 5 4 4 4 3 3 3 3 3 3 3 3 2 3 2 2 2 2 1 1 1 1 1 1 1 2 3 4 5 5 6 7 7 8 8
10 8 6 7 7 6 5 6 6 5 4 3 3 3 2 2 1 1 2 1 1 2 2 1 1 3 5 4 2 2 2 2 2 3 4 4 5 6 6 8 8 7 7
10 9 6 7 7 6 7 7 6 6 5 3 3 3 3 2 1 1 1 1 2 2 3 3 2 2 3 6 6 4 3 3 3 3 4 4 5 6 6 7 8 8 8
10 8 9 7 7 6 7 7 7 5 4 3 3 3 3 4 3 1 1 1 2 2 3 3 3 3 2 2 5 7 5 4 4 4 5 6 6 6 7 8 7 7 6
9 9 9 8 8 7 7 8 8 8 5 5 4 4 3 3 2 3 2 1 1 1 2 2 3 3 3 2 2 5 6 5 5 5 6 6 7 7 6 6 6 5 4
9 9 9 8 7 6 7 7 7 6 6 5 4 4 4 3 3 2 3 2 1 1 2 1 2 2 2 2 3 6 6 6 6 6 6 7 7 8 7 5 5 4 3
8 9 8 8 7 6 6 6 6 6 5 5 4 3 4 4 5 5 4 3 3 1 1 1 1 1 2 2 2 5 6 6 6 6 7 8 8 9 9 7 7 5 4
5 8 8 7 7 6 7 6 6 6 5 5 4 4 4 4 4 5 5 4 3 2 1 0 0 1 1 2 4 6 6 6 6 6 7 8 9 9 10 9 7 6 5
5 7 7 7 6 6 6 6 6 6 6 5 5 3 3 3 2 3 4 4 3 2 2 2 1 1 1 1 2 4 5 6 6 7 7 8 8 9 9 9 8 7 6
6 7 8 7 7 7 6 6 5 5 5 5 4 4 3 2 2 3 3 3 4 3 3 4 2 2 1 1 3 3 3 6 7 7 7 8 8 9 9 9 7 6 6
6 8 8 7 7 7 7 7 5 5 5 4 4 4 3 2 2 2 2 3 4 4 3 4 3 3 2 1 2 2 3 6 6 6 7 7 7 8 8 7 6 6 6
8 9 9 8 8 7 7 6 5 5 5 4 3 4 4 3 2 2 2 3 3 4 3 2 2 2 2 2 2 2 3 5 6 6 6 6 7 8 9 7 7 7 7
9 10 10 9 8 7 7 6 6 7 6 5 4 4 4 4 3 2 2 2 3 3 4 2 1 2 2 2 2 2 2 2 3 6 6 6 7 8 9 9 9 9 8
8 9 9 9 8 7 7 7 7 6 6 6 6 5 5 3 4 3 2 3 2 3 3 3 2 2 2 2 2 2 1 1 2 5 6 6 7 8 8 9 9 9 9
8 8 9 9 8 7 7 6 6 6 6 6 6 6 5 5 4 3 3 2 2 2 2 2 2 2 1 2 2 2 1 1 2 3 4 6 7 8 8 9 10 10 9
7 8 8 7 7 7 7 6 6 6 6 5 5 4 5 5 4 4 3 3 3 3 3 3 2 2 2 2 2 2 2 1 1 1 3 4 5 7 8 9 9 9 9
6 6 7 7 6 6 6 7 7 7 7 6 5 4 4 4 3 3 2 3 3 3 3 3 3 3 3 3 4 3 2 2 2 1 1 1 1 2 3 5 6 8 8
6 6 7 7 7 5 8 10 8 7 7 7 6 5 5 5 5 5 4 2 2 3 4 4 4 4 5 4 4 3 3 3 3 2 2 1 1 1 2 3 5 6 6
6 6 6 6 7 7 11 11 10 6 7 6 7 6 5 4 5 4 4 4 3 1 2 3 4 4 4 4 5 5 4 3 2 2 2 2 2 1 1 2 4 4 4
5 6 6 6 6 7 11 11 11 7 6 6 6 6 6 6 5 5 4 3 3 2 1 2 3 2 2 3 4 4 4 3 2 1 1 2 2 2 1 1 3 3 3
5 5 6 7 7 8 11 12 11 6 5 6 6 6 6 6 8 8 6 5 4 3 3 3 3 3 4 5 5 4 4 3 2 3 2 2 2 1 2 2 1 2 2
5 5 5 6 7 7 11 13 12 6 6 6 5 6 8 8 10 11 7 6 5 4 4 4 5 5 5 5 4 3 3 3 2 2 3 2 2 2 2 2 1 1 1
Wind_Direction
179 176 180 180 185 183 186 192 196 191 201 205 215 237 241 246 261 264 220 188 256 275 275 276 273 265 252 237 232 228 232 245 254 251 253 259 261 256 256 262 269 277 300
184 183 185 187 188 190 192 198 199 202 209 217 227 239 253 261 265 270 281 227 217 257 276 274 273 274 265 257 244 233 232 238 247 257 263 263 262 260 255 253 255 257 261
191 190 193 192 191 191 195 202 202 214 219 223 233 245 261 273 277 277 279 287 267 223 250 270 277 279 273 269 249 231 236 243 247 255 264 269 267 266 263 260 256 253 251
199 197 198 199 194 193 199 202 206 212 215 226 238 240 255 268 276 290 287 284 291 290 230 225 299 292 282 261 236 183 135 110 307 280 271 274 278 274 268 267 263 260 256
200 200 204 202 195 198 202 201 212 219 220 226 244 256 264 270 286 290 295 310 315 312 310 90 78 29 357 295 211 164 120 79 45 359 318 293 288 284 278 271 269 261 258
200 202 203 204 198 200 203 205 206 212 227 231 239 248 258 267 286 318 324 341 6 1 347 355 97 78 56 51 65 90 76 63 51 9 348 328 307 292 286 277 270 265 255
200 202 199 200 199 203 205 208 205 208 212 216 231 228 208 199 146 84 45 50 64 48 44 37 31 38 69 58 48 54 53 40 24 13 2 337 323 309 296 292 276 269 260
200 202 202 199 198 200 201 203 204 206 201 204 228 238 226 197 169 130 94 76 67 72 63 48 49 43 37 45 51 40 30 22 9 358 350 341 325 312 307 298 290 279 271
200 199 202 200 200 200 198 198 203 208 204 197 226 241 242 244 188 167 137 123 100 91 79 60 47 43 42 41 40 42 24 16 10 359 354 355 353 342 322 316 311 295 287
196 196 198 198 199 201 202 200 204 210 214 205 204 234 260 283 256 223 178 164 125 88 83 82 67 55 46 46 44 38 23 19 13 5 6 11 10 4 359 360 4 1 0
194 193 193 192 196 196 196 193 194 201 214 218 207 203 218 232 244 255 244 195 189 166 118 97 104 79 58 47 36 31 20 20 14 4 11 21 18 11 8 7 7 10 14
188 190 188 186 191 189 188 187 191 195 203 213 212 213 217 223 222 233 250 244 231 172 161 155 132 80 63 51 45 27 23 21 16 13 19 25 20 12 6 4 4 7 10
187 187 183 183 185 185 180 176 184 188 194 200 205 210 225 241 248 245 253 257 248 201 186 184 160 139 86 49 49 20 42 30 27 27 24 27 22 14 8 6 10 9 9
186 177 181 182 179 174 170 170 176 179 182 188 194 196 204 212 223 233 243 245 246 220 207 195 159 163 120 74 50 13 54 46 41 41 34 30 25 19 12 8 11 15 16
169 170 174 172 170 169 166 163 168 171 172 175 178 182 190 194 201 213 228 236 247 250 224 176 169 153 138 98 61 35 46 56 51 53 47 38 29 23 15 12 18 18 18
166 165 168 167 164 165 161 159 158 161 163 164 165 175 182 186 185 193 210 225 239 255 255 136 156 147 145 127 94 63 60 60 57 56 55 45 40 33 25 34 37 34 30
169 166 165 164 161 161 160 163 166 164 167 167 172 180 182 179 183 186 196 212 221 233 241 162 133 141 159 150 117 82 54 43 58 57 55 52 49 45 40 41 44 44 41
167 165 160 160 160 163 165 170 169 173 175 177 178 179 180 176 183 183 189 201 213 225 236 209 165 162 160 151 135 115 83 54 54 58 55 54 57 57 51 46 47 46 44
162 160 160 163 163 166 169 173 172 175 179 179 179 182 180 181 185 185 189 195 201 209 227 215 173 154 144 150 151 135 127 104 69 56 57 59 60 60 58 52 49 47 47
164 163 164 163 162 164 168 169 169 171 172 171 173 177 179 186 187 183 186 193 197 204 202 198 179 168 160 160 177 176 178 174 144 68 67 60 63 62 56 51 48 46 47
167 165 162 159 160 166 173 173 172 172 169 166 165 170 170 168 172 182 186 192 195 203 200 199 191 180 180 178 192 182 188 171 169 198 181 91 78 72 61 50 46 47 49
169 168 170 166 169 175 173 175 172 172 171 170 168 167 161 164 163 167 166 184 214 215 208 207 210 208 202 194 176 177 169 182 189 173 210 151 137 98 58 43 38 46 51
174 176 177 176 178 176 176 177 178 175 174 174 173 170 167 164 166 160 152 158 166 192 247 236 227 221 203 187 177 181 186 200 173 131 200 174 170 156 97 45 33 43 54
182 184 183 182 181 181 181 180 177 179 175 177 181 180 175 174 176 177 174 167 161 153 197 233 242 231 211 176 179 178 162 137 108 125 239 199 174 175 154 123 48 34 52
193 193 190 187 187 185 186 182 177 175 178 182 183 186 186 186 180 182 179 172 168 145 108 100 91 112 125 138 147 143 152 167 174 165 189 212 163 175 193 190 106 38 36
201 195 195 197 196 193 188 189 185 182 184 181 182 188 196 197 187 188 190 185 187 173 156 140 126 121 127 131 148 175 172 180 167 170 169 188 162 173 195 183 197 217 206